Theta_e
326 328 338 341 341 341 341 341 339 338 339 335 334 331 330 332 332 333 333 333 331 323 318 315 312 312 312 310 310 309 306 306 306 303 302 302 303 303 304 305 308 310 312
323 327 328 341 338 337 339 338 338 337 336 335 333 331 331 331 330 330 330 330 324 323 319 313 311 310 309 309 309 307 305 305 306 302 297 296 298 300 303 305 307 308 309
321 324 334 337 337 337 337 337 337 336 335 335 332 331 331 329 327 326 325 323 323 319 315 313 311 309 309 308 307 307 306 303 305 303 301 295 292 296 300 302 305 306 308
324 321 336 335 336 338 339 337 334 333 335 333 329 328 325 323 324 324 323 319 321 316 315 314 313 310 309 308 309 311 307 305 302 303 304 301 300 295 295 300 303 304 306
327 333 334 335 336 337 336 335 334 332 332 330 328 326 322 322 323 323 320 315 314 314 316 314 311 309 309 309 309 309 308 306 304 302 301 300 299 298 297 295 302 306 305
331 325 335 336 333 335 335 334 334 328 324 323 321 321 321 319 318 316 318 316 313 312 313 314 310 309 311 310 310 310 309 308 306 304 302 301 300 298 296 295 297 298 302
325 324 329 332 332 332 332 332 332 326 321 320 320 319 315 314 311 307 307 311 312 311 311 312 309 308 309 310 310 309 309 309 306 305 304 303 302 301 300 298 298 297 301
324 324 327 333 333 332 331 331 329 323 319 319 320 318 317 314 312 308 308 310 310 311 313 312 311 310 310 311 310 309 309 309 308 307 305 305 306 304 303 302 298 298 297
323 323 324 322 331 332 331 330 327 320 319 317 317 314 313 311 310 309 309 311 311 312 312 311 311 310 310 311 309 309 309 308 307 307 307 306 308 309 305 304 303 300 296
320 322 324 323 324 331 331 330 325 319 319 318 318 316 314 313 311 310 309 311 310 311 312 312 312 311 310 310 309 308 309 308 307 308 307 307 308 308 307 306 304 302 300
320 321 321 327 329 331 329 326 321 316 317 319 319 317 314 313 312 310 310 311 311 312 311 312 313 311 309 309 308 309 310 309 308 308 307 308 308 307 307 307 305 305 302
318 319 320 322 329 326 324 321 318 317 320 321 321 318 317 313 310 310 310 310 310 312 314 314 313 313 311 310 308 309 310 309 308 308 307 308 310 307 308 307 306 306 308
318 318 318 319 317 321 319 317 318 318 318 320 318 316 313 312 311 311 311 312 312 312 313 314 314 314 313 311 310 310 310 309 309 309 308 306 306 306 306 307 307 309 310
316 319 317 317 318 319 318 318 316 317 317 320 319 315 313 313 312 313 313 313 314 313 312 313 314 315 315 314 312 311 309 309 310 309 307 307 307 306 306 307 308 308 308
314 317 316 316 317 319 319 321 319 317 319 318 315 315 314 313 313 314 314 314 313 314 313 313 313 314 315 316 313 313 311 309 308 308 308 309 310 316 315 310 309 307 306
314 318 317 318 319 321 321 318 315 315 316 316 313 313 313 313 314 314 314 314 315 315 315 315 315 314 317 304 306 312 309 307 307 307 308 308 313 313 315 316 317 312 306
315 316 317 320 322 322 323 317 318 317 315 318 318 318 317 316 315 316 315 314 313 314 314 314 315 301 299 300 301 305 309 308 307 307 307 308 312 312 312 314 315 314 314
315 315 318 318 319 316 313 313 312 311 310 310 312 313 312 311 313 312 310 312 312 311 311 306 302 296 296 298 298 303 307 308 307 307 308 307 308 309 309 311 312 313 313
314 314 316 314 310 308 307 307 305 306 307 307 307 308 309 306 308 306 305 306 306 307 307 303 300 295 294 297 297 295 296 297 298 302 306 307 305 301 302 309 312 311 310
315 313 311 310 307 305 304 302 300 300 301 303 303 302 304 302 296 296 299 301 302 304 309 305 299 300 293 296 296 295 294 293 294 296 301 305 300 298 298 303 308 310 310
310 308 306 305 304 302 299 297 296 295 298 299 298 298 299 294 293 293 295 293 297 300 304 306 303 295 293 291 295 295 291 292 292 293 294 296 297 295 296 297 301 304 306
307 305 302 301 300 298 297 293 292 294 296 296 295 295 294 293 293 291 291 292 292 291 288 287 288 294 293 294 293 294 293 293 290 291 293 294 295 294 296 298 299 299 300
306 304 301 298 297 296 295 292 293 295 295 293 293 292 290 291 290 290 292 289 289 287 286 285 285 285 291 289 292 292 292 292 289 290 294 295 294 296 301 301 301 301 300
304 302 301 297 294 294 294 294 295 295 293 291 291 292 290 290 291 291 290 288 286 286 286 285 284 284 286 287 286 286 285 288 288 289 287 297 298 298 300 300 301 304 303
305 302 300 296 294 293 293 295 295 295 293 293 292 290 290 288 288 288 287 288 288 288 286 285 284 284 285 286 289 288 288 288 289 289 290 291 292 292 294 296 297 298 301
298 297 295 295 295 295 294 295 295 294 293 291 290 290 289 287 287 286 287 291 291 292 292 291 288 286 290 291 291 290 290 290 290 288 290 290 289 290 291 291 293 295 296
Wind_Speed
9 9 27 10 2 8 8 8 9 6 6 2 3 2 3 2 2 3 6 6 5 8 7 5 5 5 5 3 3 2 4 4 4 3 5 4 3 3 5 4 5 6 6
3 2 11 11 10 10 9 8 7 6 4 3 3 1 2 1 2 2 3 6 7 7 6 6 5 6 4 4 3 3 1 2 3 2 1 4 5 4 4 4 4 6 6
2 6 9 12 10 11 9 10 8 6 4 4 3 4 4 4 2 1 1 4 8 7 7 6 6 5 4 2 1 2 4 1 3 2 3 3 2 4 3 4 5 6 6
5 7 7 8 10 10 7 9 9 7 5 7 4 6 4 4 3 2 2 4 5 7 7 7 5 4 3 2 1 2 2 3 2 3 0 2 3 1 5 4 5 5 6
5 5 6 6 6 9 8 8 10 8 6 6 5 6 3 2 2 2 3 4 3 6 6 6 5 3 2 2 2 1 1 1 2 3 2 2 1 2 3 5 9 6 5
8 7 7 6 6 7 9 6 11 8 8 8 6 7 7 5 6 2 2 3 1 3 5 5 4 3 3 3 2 2 3 3 4 3 3 3 2 3 2 3 4 4 6
9 5 7 10 8 9 7 6 12 9 8 9 8 7 7 8 8 4 2 4 4 2 4 4 3 3 3 4 3 3 4 4 3 4 3 3 4 3 3 2 4 3 4
9 13 9 8 9 1 8 7 10 10 8 9 9 7 8 5 5 6 4 3 3 4 3 4 4 6 5 4 4 2 4 4 4 6 5 4 5 3 3 3 2 4 3
7 1 4 10 10 10 9 10 10 7 8 8 7 7 7 7 7 7 5 4 4 3 5 5 6 6 5 6 5 4 5 4 4 5 6 4 5 3 4 3 3 3 4
1 4 7 9 4 13 8 8 10 12 10 9 8 7 7 6 4 5 5 6 6 5 5 4 5 6 6 6 5 4 6 5 5 4 5 5 4 5 4 3 3 3 4
1 4 2 6 12 12 12 11 10 9 8 7 7 8 6 6 6 5 5 6 4 5 5 6 6 6 7 7 5 6 7 6 7 5 6 7 5 5 5 3 3 3 4
3 3 6 6 11 14 13 13 10 9 10 11 7 7 6 6 6 6 7 6 6 4 7 6 6 6 7 7 7 7 7 7 7 7 6 7 4 6 5 4 6 4 4
2 2 5 5 3 8 12 10 10 10 10 8 8 7 7 7 7 7 7 6 6 7 7 6 7 7 7 7 8 8 8 8 7 7 7 7 6 6 4 5 5 4 4
1 2 6 5 4 4 2 3 4 6 7 9 9 9 8 8 7 8 7 7 7 7 7 7 7 7 7 7 7 7 8 7 7 7 7 7 7 7 7 5 6 5 5
3 4 4 3 4 6 6 3 5 4 7 9 8 8 7 7 7 8 7 7 6 6 6 6 7 7 6 6 7 7 7 7 7 7 7 7 8 13 9 4 6 5 4
6 5 6 4 5 6 5 6 6 6 5 1 6 1 3 4 4 4 4 4 5 5 5 6 6 7 6 18 17 11 7 7 7 7 7 6 9 9 11 10 10 8 5
7 4 5 3 3 4 5 7 5 7 7 8 9 7 5 5 6 6 6 6 5 4 6 6 7 9 8 16 17 16 6 6 7 8 6 6 5 8 7 8 9 9 11
4 5 5 2 3 6 11 10 10 8 7 8 7 5 6 6 5 5 6 4 3 5 5 6 7 6 6 13 19 18 11 8 7 6 6 6 8 9 8 7 7 7 7
7 5 5 5 7 8 9 11 8 7 8 7 6 6 5 5 6 6 6 4 4 2 3 4 5 5 5 10 14 11 8 9 11 9 7 7 6 13 14 6 8 7 6
11 13 9 6 8 6 7 10 8 9 8 7 6 6 5 6 6 5 5 3 3 4 2 5 4 5 2 8 10 8 4 8 7 9 8 6 11 17 17 8 5 6 5
14 10 9 8 7 6 8 10 7 7 4 5 5 7 7 6 6 5 4 5 6 6 6 5 3 1 2 4 6 9 4 5 7 7 8 7 15 19 19 10 6 5 5
13 11 12 10 6 7 10 8 9 5 6 6 7 7 7 5 5 6 6 4 4 5 4 2 1 2 3 5 6 7 5 8 4 8 7 8 14 19 19 12 11 13 9
11 11 12 10 7 7 8 9 4 6 6 7 7 6 6 6 6 6 6 4 3 2 2 2 2 3 3 4 9 11 8 9 5 5 10 17 16 15 10 14 12 9 3
13 10 13 12 8 7 8 7 6 6 6 6 5 5 5 6 6 4 3 3 3 3 3 4 4 3 4 4 5 5 5 8 8 9 6 9 12 9 8 10 10 6 6
9 8 8 10 8 7 7 6 6 6 5 3 4 5 4 5 5 4 2 3 4 4 5 4 3 3 4 3 7 7 7 7 7 7 2 4 7 8 9 9 8 8 7
10 10 7 8 7 7 6 6 6 5 4 3 4 4 3 3 4 4 6 8 7 8 9 8 6 2 7 8 10 8 12 11 9 5 4 5 4 5 5 6 8 8 10
Wind_Direction
157 112 75 341 284 93 115 128 125 144 140 119 121 125 164 139 149 144 138 140 118 122 110 100 88 75 69 66 47 79 45 357 360 13 335 324 29 329 334 324 315 311 303
193 216 147 151 208 141 135 116 124 146 147 131 102 117 144 226 120 139 123 135 123 126 113 118 102 92 90 62 63 71 30 349 20 6 51 352 336 322 296 301 313 307 305
131 250 166 160 146 134 139 133 139 150 153 129 90 74 62 42 15 55 106 139 137 134 130 108 103 92 96 110 118 103 81 25 317 76 126 352 303 328 300 309 303 315 312
288 196 161 152 150 129 132 131 128 137 163 143 147 135 160 160 198 218 161 142 135 129 119 114 117 117 135 132 193 140 124 133 270 328 270 222 184 287 328 307 299 300 307
187 159 136 157 101 114 127 132 119 98 96 116 135 127 130 175 139 79 102 93 109 119 120 129 142 140 164 186 170 218 249 191 192 192 277 299 281 201 181 291 325 333 327
93 57 52 30 111 131 129 147 111 113 101 104 112 129 156 126 104 115 190 132 147 135 140 144 150 161 184 214 237 235 242 254 237 207 216 213 205 266 230 254 283 270 303
136 154 177 178 180 149 132 153 127 131 126 112 98 108 115 109 121 130 197 171 161 159 178 161 173 209 215 234 236 242 255 257 230 223 233 220 232 195 196 201 273 282 295
198 176 194 188 134 288 159 154 136 127 129 120 124 130 137 146 150 162 180 185 163 175 177 186 200 224 225 235 237 246 254 246 249 249 225 244 255 211 191 198 195 311 291
243 320 36 69 148 201 179 162 130 142 145 136 140 171 165 153 166 159 164 169 162 173 180 200 209 227 235 237 241 247 259 247 253 257 260 241 260 244 248 217 188 188 303
155 227 215 179 169 213 157 149 156 160 165 161 176 172 172 164 156 146 183 184 190 192 198 218 230 241 242 244 238 252 258 250 260 246 257 263 252 254 256 242 225 191 203
200 329 63 162 177 160 156 167 170 168 164 171 184 174 173 168 164 185 208 211 208 213 230 242 246 240 244 248 246 250 253 248 263 265 251 265 261 260 260 252 247 240 177
356 50 103 100 157 166 163 171 178 184 178 186 177 168 164 165 176 196 208 200 219 220 234 244 245 246 245 247 240 249 248 241 256 257 256 258 270 272 263 248 250 241 219
52 30 20 48 73 170 172 179 187 194 184 168 154 157 163 180 192 210 215 211 222 231 244 240 245 251 246 243 241 236 246 244 244 245 232 250 259 272 265 258 253 246 257
7 15 56 37 62 79 139 202 216 198 172 159 152 164 180 202 206 219 213 219 220 228 240 249 254 254 255 250 247 244 246 249 246 237 236 243 244 250 265 257 252 250 255
130 117 101 50 77 60 46 104 135 166 147 140 150 182 196 213 221 222 229 233 237 247 255 263 265 270 274 268 253 252 251 248 246 246 247 244 248 259 246 247 259 244 245
186 145 142 79 57 80 69 81 81 113 88 181 162 203 355 291 276 299 317 341 321 302 292 294 294 310 356 355 344 313 267 253 246 254 257 255 273 266 264 267 253 219 225
176 141 88 42 39 73 81 103 77 45 59 90 70 67 71 51 49 43 53 44 20 16 21 17 19 60 26 2 357 344 291 264 255 249 248 274 266 261 259 259 254 261 235
172 130 100 359 3 77 79 84 79 76 67 63 68 65 58 55 59 54 40 27 23 33 45 48 74 67 26 18 21 14 3 345 317 292 284 278 288 293 280 263 251 248 252
194 149 123 103 83 85 89 86 72 68 65 56 53 37 38 45 49 33 12 354 5 4 77 87 92 83 25 14 31 33 12 1 342 338 339 341 5 349 340 276 261 262 268
137 129 121 117 105 94 92 90 72 58 47 40 32 23 26 57 34 12 360 335 322 308 127 106 93 90 41 16 35 33 10 358 347 335 337 344 356 338 340 331 290 253 263
123 108 90 90 80 77 87 79 75 65 61 50 35 26 27 28 25 2 5 351 10 42 62 101 98 82 22 360 19 24 13 351 339 333 331 329 333 323 319 317 282 250 275
119 113 102 98 97 98 95 87 69 43 41 33 29 19 21 10 6 3 347 24 43 55 49 65 351 277 295 329 350 353 337 328 308 318 316 310 307 307 310 305 265 271 271
126 126 120 114 106 101 100 87 73 60 43 33 20 19 7 356 358 10 6 360 14 12 301 314 307 303 287 315 336 322 318 314 307 292 304 308 308 303 318 330 338 344 325
137 141 132 124 114 104 100 106 88 72 54 35 8 360 4 350 350 345 18 353 327 317 284 288 292 301 303 328 316 304 323 316 315 308 316 325 338 339 1 358 356 3 5
118 117 122 119 126 123 117 116 105 92 69 26 357 353 343 348 347 333 294 315 281 216 270 251 225 240 290 259 259 293 335 317 299 320 335 16 5 1 18 10 358 346 355
110 108 107 111 125 116 112 111 104 106 100 26 353 341 352 345 333 323 325 314 273 314 329 231 210 250 228 241 280 354 343 349 44 53 22 14 360 355 353 3 4 7 337